Location: Madrid
(40.4000°N, 3.6830°W)
Time: 02:54:30
(UTC+02:00)

ISS - Pass Details

Date: 22 May 2019
Orbit: 408 x 418 km, 51.6° (Epoch: 26 May)

Event Time Altitude Azimuth Distance (km) Brightness Sun altitude
Rises 22:36:15 0° 263° (W) 2,340 0.7 -11.2°
Reaches altitude 10° 22:38:34 10° 277° (W) 1,482 0.0 -11.6°
Maximum altitude 22:41:24 25° 336° (NNW) 876 -1.3 -12.0°
Drops below altitude 10° 22:44:15 10° 34° (NE) 1,492 -0.9 -12.4°
Sets 22:46:35 0° 48° (NE) 2,359 0.0 -12.7°
